Location: Helsinki
(60.1699°N, 24.9384°E)
Time: 15:05:01
(UTC+02:00)

KKS-1 - Pass Details

Date: 16 December 2023
Orbit: 628 x 642 km, 98.2° (Epoch: 22 February)

Event Time Altitude Azimuth Distance (km) Brightness Sun altitude
Rises 08:05:17 0° 108° (ESE) 2,927 ? -7.6°
Reaches altitude 10° 08:08:01 10° 90° (E) 2,025 ? -7.4°
Maximum altitude 08:11:01 18° 47° (NE) 1,558 ? -7.1°
Drops below altitude 10° 08:14:01 10° 4° (N) 2,039 ? -6.8°
Enters shadow 08:16:34 - 347° (NNW) 2,875 ? -6.5°
